Time,TemperatureF,DewpointF,PressureIn,WindDirection,WindDirectionDegrees,WindSpeedMPH,WindSpeedGustMPH,Humidity,HourlyPrecipIn,Conditions,Clouds,dailyrainin,SoftwareType,DateUTC
2013-06-27 00:01:00,65.9,62.6,29.72,NNW,338,0.4,1.3,89,0.00,,,0.00,WUHU216HW,2013-06-27 04:01:00,
2013-06-27 00:02:00,65.9,62.6,29.72,NW,315,0.9,1.3,89,0.00,,,0.00,WUHU216HW,2013-06-27 04:02:00,
2013-06-27 00:07:00,66.1,62.7,29.72,NNW,338,0.2,1.8,89,0.00,,,0.00,WUHU216HW,2013-06-27 04:07:00,
2013-06-27 00:12:00,66.1,62.7,29.72,NNE,23,1.1,1.8,89,0.00,,,0.00,WUHU216HW,2013-06-27 04:12:00,
2013-06-27 00:17:00,66.1,62.4,29.72,NNE,23,0.0,1.1,88,0.00,,,0.00,WUHU216HW,2013-06-27 04:17:00,
2013-06-27 00:22:00,65.9,62.2,29.72,NNE,23,0.0,1.1,88,0.00,,,0.00,WUHU216HW,2013-06-27 04:22:00,
2013-06-27 00:27:00,65.9,62.2,29.72,North,0,0.0,0.0,88,0.00,,,0.00,WUHU216HW,2013-06-27 04:27:00,
2013-06-27 00:32:00,65.9,62.2,29.73,NNW,338,0.0,0.4,88,0.00,,,0.00,WUHU216HW,2013-06-27 04:32:00,
2013-06-27 00:37:00,65.7,62.4,29.73,NNE,23,1.8,1.8,89,0.00,,,0.00,WUHU216HW,2013-06-27 04:37:00,
2013-06-27 00:42:00,65.3,61.8,29.73,NNE,23,0.0,1.8,88,0.00,,,0.00,WUHU216HW,2013-06-27 04:42:00,
2013-06-27 00:47:00,65.2,61.8,29.73,NNE,23,0.0,1.8,89,0.00,,,0.00,WUHU216HW,2013-06-27 04:47:00,
2013-06-27 00:52:00,65.2,61.8,29.72,ESE,113,0.7,0.7,89,0.00,,,0.00,WUHU216HW,2013-06-27 04:52:00,
2013-06-27 00:57:00,65.2,61.8,29.72,ENE,68,0.4,2.0,89,0.00,,,0.00,WUHU216HW,2013-06-27 04:57:00,
2013-06-27 01:02:00,65.2,61.8,29.72,NW,315,1.1,2.0,89,0.00,,,0.00,WUHU216HW,2013-06-27 05:02:00,
2013-06-27 01:07:00,65.2,61.8,29.72,NNW,338,1.3,1.3,89,0.00,,,0.00,WUHU216HW,2013-06-27 05:07:00,
2013-06-27 01:12:00,65.0,61.8,29.73,NW,315,0.0,1.3,89,0.00,,,0.00,WUHU216HW,2013-06-27 05:12:00,
2013-06-27 01:17:00,64.8,61.6,29.73,NW,315,1.1,1.6,89,0.00,,,0.00,WUHU216HW,2013-06-27 05:17:00,
2013-06-27 01:22:00,64.8,61.6,29.73,NW,315,0.0,1.6,89,0.00,,,0.00,WUHU216HW,2013-06-27 05:22:00,
2013-06-27 01:27:00,64.8,61.6,29.72,SE,135,1.8,1.8,89,0.00,,,0.00,WUHU216HW,2013-06-27 05:27:00,
2013-06-27 01:32:00,65.0,61.8,29.72,SSE,158,1.3,2.0,89,0.00,,,0.00,WUHU216HW,2013-06-27 05:32:00,
2013-06-27 01:37:00,65.0,61.8,29.72,SE,135,0.4,2.0,89,0.00,,,0.00,WUHU216HW,2013-06-27 05:37:00,
2013-06-27 01:42:00,65.0,61.8,29.72,North,0,0.7,1.8,89,0.00,,,0.00,WUHU216HW,2013-06-27 05:42:00,
2013-06-27 01:47:00,65.0,62.0,29.72,NNW,338,0.9,1.3,90,0.00,,,0.00,WUHU216HW,2013-06-27 05:47:00,
2013-06-27 01:52:00,65.0,62.0,29.73,North,0,0.9,1.3,90,0.00,,,0.00,WUHU216HW,2013-06-27 05:52:00,
2013-06-27 01:57:00,64.8,61.9,29.72,NNE,23,0.0,1.3,90,0.00,,,0.00,WUHU216HW,2013-06-27 05:57:00,
2013-06-27 02:02:00,64.8,61.9,29.72,NNW,338,0.2,1.3,90,0.00,,,0.00,WUHU216HW,2013-06-27 06:02:00,
2013-06-27 02:07:00,64.8,61.9,29.72,North,0,0.4,0.7,90,0.00,,,0.00,WUHU216HW,2013-06-27 06:07:00,
2013-06-27 02:12:00,64.8,61.9,29.72,North,0,0.0,0.4,90,0.00,,,0.00,WUHU216HW,2013-06-27 06:12:00,
2013-06-27 02:17:00,64.8,61.9,29.72,North,0,0.0,0.4,90,0.00,,,0.00,WUHU216HW,2013-06-27 06:17:00,
2013-06-27 02:22:00,64.8,61.9,29.71,North,0,0.0,0.0,90,0.00,,,0.00,WUHU216HW,2013-06-27 06:22:00,
2013-06-27 02:27:00,64.6,61.8,29.71,North,0,0.0,0.0,90,0.00,,,0.00,WUHU216HW,2013-06-27 06:27:00,
2013-06-27 02:32:00,64.6,61.8,29.72,NNW,338,0.4,1.3,90,0.00,,,0.00,WUHU216HW,2013-06-27 06:32:00,
2013-06-27 02:37:00,64.6,61.8,29.72,SSW,203,0.0,1.3,90,0.00,,,0.00,WUHU216HW,2013-06-27 06:37:00,
2013-06-27 02:42:00,64.8,61.9,29.72,SW,225,0.4,1.8,90,0.00,,,0.00,WUHU216HW,2013-06-27 06:42:00,
2013-06-27 02:47:00,64.8,61.9,29.72,West,270,1.3,2.0,90,0.00,,,0.00,WUHU216HW,2013-06-27 06:47:00,
2013-06-27 02:52:00,64.8,61.9,29.72,SSE,158,0.0,2.0,90,0.00,,,0.00,WUHU216HW,2013-06-27 06:52:00,
2013-06-27 02:57:00,65.0,62.0,29.72,SSE,158,1.1,1.6,90,0.00,,,0.00,WUHU216HW,2013-06-27 06:57:00,
2013-06-27 03:02:00,65.0,62.0,29.72,NW,315,0.4,4.0,90,0.00,,,0.00,WUHU216HW,2013-06-27 07:02:00,
2013-06-27 03:07:00,65.0,62.0,29.72,NNE,23,0.9,4.0,90,0.00,,,0.00,WUHU216HW,2013-06-27 07:07:00,
2013-06-27 03:12:00,64.8,61.9,29.71,North,0,0.0,1.1,90,0.00,,,0.00,WUHU216HW,2013-06-27 07:12:00,
2013-06-27 03:17:00,64.8,61.9,29.71,SSE,158,0.2,1.6,90,0.00,,,0.00,WUHU216HW,2013-06-27 07:17:00,
2013-06-27 03:22:00,64.8,61.9,29.71,SE,135,3.8,4.7,90,0.00,,,0.00,WUHU216HW,2013-06-27 07:22:00,
2013-06-27 03:27:00,65.2,62.2,29.71,SSE,158,4.5,4.7,90,0.00,,,0.00,WUHU216HW,2013-06-27 07:27:00,
2013-06-27 03:32:00,65.3,62.4,29.71,South,180,2.0,4.7,90,0.00,,,0.00,WUHU216HW,2013-06-27 07:32:00,
2013-06-27 03:37:00,65.3,62.4,29.71,SSE,158,1.8,4.0,90,0.00,,,0.00,WUHU216HW,2013-06-27 07:37:00,
2013-06-27 03:42:00,65.5,62.6,29.71,SE,135,4.3,4.3,90,0.00,,,0.00,WUHU216HW,2013-06-27 07:42:00,
2013-06-27 03:47:00,65.7,62.7,29.71,SSE,158,2.0,4.7,90,0.00,,,0.00,WUHU216HW,2013-06-27 07:47:00,
2013-06-27 03:52:00,65.7,63.0,29.71,SE,135,2.5,4.7,91,0.00,,,0.00,WUHU216HW,2013-06-27 07:52:00,
2013-06-27 03:57:00,65.9,62.8,29.71,SSE,158,3.8,3.8,90,0.00,,,0.00,WUHU216HW,2013-06-27 07:57:00,
2013-06-27 04:02:00,65.9,62.8,29.71,SSE,158,3.8,4.0,90,0.00,,,0.00,WUHU216HW,2013-06-27 08:02:00,
2013-06-27 04:07:00,65.7,62.4,29.70,SSE,158,3.8,4.9,89,0.00,,,0.00,WUHU216HW,2013-06-27 08:07:00,
2013-06-27 04:12:00,65.5,62.2,29.71,SSE,158,3.4,4.9,89,0.00,,,0.00,WUHU216HW,2013-06-27 08:12:00,
2013-06-27 04:17:00,65.3,62.0,29.71,SE,135,3.6,4.7,89,0.00,,,0.00,WUHU216HW,2013-06-27 08:17:00,
2013-06-27 04:22:00,65.2,61.8,29.70,SSE,158,3.6,5.6,89,0.00,,,0.00,WUHU216HW,2013-06-27 08:22:00,
2013-06-27 04:27:00,65.2,61.8,29.70,SSE,158,1.1,5.6,89,0.00,,,0.00,WUHU216HW,2013-06-27 08:27:00,
2013-06-27 04:32:00,65.2,61.8,29.71,NW,315,0.7,5.4,89,0.00,,,0.00,WUHU216HW,2013-06-27 08:32:00,
2013-06-27 04:37:00,64.8,61.6,29.71,NNW,338,0.0,1.8,89,0.00,,,0.00,WUHU216HW,2013-06-27 08:37:00,
2013-06-27 04:42:00,64.6,61.4,29.71,NNW,338,0.0,1.1,89,0.00,,,0.00,WUHU216HW,2013-06-27 08:42:00,
2013-06-27 04:47:00,64.4,61.2,29.70,NNW,338,0.0,0.7,89,0.00,,,0.00,WUHU216HW,2013-06-27 08:47:00,
2013-06-27 04:52:00,64.3,61.0,29.70,SE,135,2.2,3.4,89,0.00,,,0.00,WUHU216HW,2013-06-27 08:52:00,
2013-06-27 04:57:00,64.3,61.4,29.70,SSE,158,4.3,5.6,90,0.00,,,0.00,WUHU216HW,2013-06-27 08:57:00,
2013-06-27 05:02:00,64.6,61.8,29.70,South,180,3.8,5.6,90,0.00,,,0.00,WUHU216HW,2013-06-27 09:02:00,
2013-06-27 05:07:00,64.8,61.9,29.71,South,180,2.9,4.9,90,0.00,,,0.00,WUHU216HW,2013-06-27 09:07:00,
2013-06-27 05:12:00,65.2,62.2,29.72,SW,225,0.2,4.9,90,0.00,,,0.00,WUHU216HW,2013-06-27 09:12:00,
2013-06-27 05:17:00,65.0,61.8,29.72,WSW,248,0.9,2.9,89,0.00,,,0.00,WUHU216HW,2013-06-27 09:17:00,
2013-06-27 05:22:00,64.8,61.6,29.72,WNW,293,1.1,1.6,89,0.00,,,0.00,WUHU216HW,2013-06-27 09:22:00,
2013-06-27 05:27:00,64.6,61.4,29.72,NNW,338,1.3,2.0,89,0.00,,,0.00,WUHU216HW,2013-06-27 09:27:00,
2013-06-27 05:32:00,64.6,61.8,29.72,NNW,338,0.4,2.0,90,0.00,,,0.00,WUHU216HW,2013-06-27 09:32:00,
2013-06-27 05:37:00,64.4,61.6,29.72,NNW,338,0.0,1.6,90,0.00,,,0.00,WUHU216HW,2013-06-27 09:37:00,
2013-06-27 05:42:00,64.4,61.2,29.72,NNW,338,0.0,0.4,89,0.00,,,0.00,WUHU216HW,2013-06-27 09:42:00,
2013-06-27 05:47:00,64.3,61.0,29.72,SW,225,0.4,0.9,89,0.00,,,0.00,WUHU216HW,2013-06-27 09:47:00,
2013-06-27 05:52:00,64.4,61.2,29.72,SSE,158,0.0,1.3,89,0.00,,,0.00,WUHU216HW,2013-06-27 09:52:00,
2013-06-27 05:57:00,64.4,61.6,29.72,NE,45,1.8,1.8,90,0.00,,,0.00,WUHU216HW,2013-06-27 09:57:00,
2013-06-27 06:02:00,64.4,61.6,29.72,SE,135,1.1,2.5,90,0.00,,,0.00,WUHU216HW,2013-06-27 10:02:00,
2013-06-27 06:07:00,64.6,61.8,29.72,SE,135,2.7,3.8,90,0.00,,,0.00,WUHU216HW,2013-06-27 10:07:00,
2013-06-27 06:12:00,64.8,61.9,29.72,ESE,113,4.7,5.4,90,0.00,,,0.00,WUHU216HW,2013-06-27 10:12:00,
2013-06-27 06:17:00,65.2,62.2,29.72,East,90,6.9,6.9,90,0.00,,,0.00,WUHU216HW,2013-06-27 10:17:00,
2013-06-27 06:22:00,65.5,62.2,29.72,ESE,113,4.7,6.9,89,0.00,,,0.00,WUHU216HW,2013-06-27 10:22:00,
2013-06-27 06:27:00,65.9,62.8,29.72,SE,135,5.4,6.5,90,0.00,,,0.00,WUHU216HW,2013-06-27 10:27:00,
2013-06-27 06:32:00,65.9,62.8,29.72,SE,135,4.7,6.3,90,0.00,,,0.00,WUHU216HW,2013-06-27 10:32:00,
2013-06-27 06:37:00,65.9,62.8,29.72,SSE,158,5.4,6.3,90,0.00,,,0.00,WUHU216HW,2013-06-27 10:37:00,
2013-06-27 06:42:00,66.1,62.7,29.72,South,180,4.9,9.2,89,0.00,,,0.00,WUHU216HW,2013-06-27 10:42:00,
2013-06-27 06:47:00,66.1,62.4,29.71,South,180,4.3,9.2,88,0.00,,,0.00,WUHU216HW,2013-06-27 10:47:00,
2013-06-27 06:52:00,66.2,62.6,29.72,SSE,158,6.7,7.6,88,0.00,,,0.00,WUHU216HW,2013-06-27 10:52:00,
2013-06-27 06:57:00,66.2,62.6,29.72,SSE,158,5.1,8.7,88,0.00,,,0.00,WUHU216HW,2013-06-27 10:57:00,
2013-06-27 07:02:00,67.3,63.6,29.72,South,180,5.4,8.7,88,0.00,,,0.00,WUHU216HW,2013-06-27 11:02:00,
2013-06-27 07:07:00,70.0,66.2,29.72,South,180,5.6,6.7,88,0.00,,,0.00,WUHU216HW,2013-06-27 11:07:00,
2013-06-27 07:12:00,72.4,66.6,29.72,South,180,3.4,6.3,82,0.00,,,0.00,WUHU216HW,2013-06-27 11:12:00,
2013-06-27 07:17:00,72.5,66.4,29.73,SSE,158,6.3,6.3,81,0.00,,,0.00,WUHU216HW,2013-06-27 11:17:00,
2013-06-27 07:22:00,71.5,65.0,29.73,SSW,203,3.4,6.3,80,0.00,,,0.00,WUHU216HW,2013-06-27 11:22:00,
2013-06-27 07:27:00,70.6,64.5,29.73,SSE,158,4.0,7.6,81,0.00,,,0.00,WUHU216HW,2013-06-27 11:27:00,
2013-06-27 07:32:00,69.8,64.1,29.72,SE,135,3.8,7.6,82,0.00,,,0.00,WUHU216HW,2013-06-27 11:32:00,
2013-06-27 07:37:00,69.7,63.9,29.72,SSE,158,1.6,6.0,82,0.00,,,0.00,WUHU216HW,2013-06-27 11:37:00,
2013-06-27 07:42:00,69.7,64.3,29.72,South,180,1.6,6.0,83,0.00,,,0.00,WUHU216HW,2013-06-27 11:42:00,
2013-06-27 07:47:00,69.8,64.4,29.72,SSE,158,1.8,5.1,83,0.00,,,0.00,WUHU216HW,2013-06-27 11:47:00,
2013-06-27 07:52:00,70.2,64.5,29.72,South,180,1.8,5.1,82,0.00,,,0.00,WUHU216HW,2013-06-27 11:52:00,
2013-06-27 07:58:00,70.2,64.5,29.72,SSE,158,3.4,5.1,82,0.00,,,0.00,WUHU216HW,2013-06-27 11:58:00,
2013-06-27 08:02:00,69.8,64.1,29.72,SSE,158,4.3,4.7,82,0.00,,,0.00,WUHU216HW,2013-06-27 12:02:00,
2013-06-27 08:08:00,70.0,64.3,29.73,SSW,203,2.2,4.7,82,0.00,,,0.00,WUHU216HW,2013-06-27 12:08:00,
2013-06-27 08:13:00,69.7,63.9,29.72,South,180,4.7,5.8,82,0.00,,,0.00,WUHU216HW,2013-06-27 12:13:00,
2013-06-27 08:17:00,69.5,63.7,29.72,SSW,203,3.8,6.0,82,0.00,,,0.00,WUHU216HW,2013-06-27 12:17:00,
2013-06-27 08:22:00,69.5,63.7,29.73,South,180,2.0,6.0,82,0.00,,,0.00,WUHU216HW,2013-06-27 12:22:00,
2013-06-27 08:27:00,69.7,64.3,29.73,South,180,2.5,5.4,83,0.00,,,0.00,WUHU216HW,2013-06-27 12:27:00,
2013-06-27 08:32:00,70.0,64.5,29.73,ESE,113,1.8,4.0,83,0.00,,,0.00,WUHU216HW,2013-06-27 12:32:00,
2013-06-27 08:37:00,70.2,64.5,29.73,SE,135,3.8,5.1,82,0.00,,,0.00,WUHU216HW,2013-06-27 12:37:00,
2013-06-27 08:42:00,70.2,64.5,29.73,SE,135,3.4,5.4,82,0.00,,,0.00,WUHU216HW,2013-06-27 12:42:00,
2013-06-27 08:47:00,70.7,65.0,29.73,SE,135,6.9,6.9,82,0.00,,,0.00,WUHU216HW,2013-06-27 12:47:00,
2013-06-27 08:52:00,71.6,65.9,29.73,SSE,158,4.7,6.9,82,0.00,,,0.00,WUHU216HW,2013-06-27 12:52:00,
2013-06-27 08:57:00,72.2,65.7,29.73,SSE,158,4.7,6.9,80,0.00,,,0.00,WUHU216HW,2013-06-27 12:57:00,
2013-06-27 09:02:00,72.2,65.7,29.73,South,180,6.3,6.9,80,0.00,,,0.00,WUHU216HW,2013-06-27 13:02:00,
2013-06-27 09:08:00,72.5,66.4,29.74,SE,135,5.1,6.9,81,0.00,,,0.00,WUHU216HW,2013-06-27 13:08:00,
2013-06-27 09:13:00,72.7,66.2,29.73,SSE,158,4.0,7.8,80,0.00,,,0.00,WUHU216HW,2013-06-27 13:13:00,
2013-06-27 09:18:00,73.3,66.8,29.73,ESE,113,4.0,7.8,80,0.00,,,0.00,WUHU216HW,2013-06-27 13:18:00,
2013-06-27 09:23:00,73.6,66.8,29.73,ESE,113,4.5,5.4,79,0.00,,,0.00,WUHU216HW,2013-06-27 13:23:00,
2013-06-27 09:28:00,73.8,66.6,29.72,ESE,113,3.6,6.0,78,0.00,,,0.00,WUHU216HW,2013-06-27 13:28:00,
2013-06-27 09:33:00,73.8,66.6,29.73,SE,135,3.1,6.0,78,0.00,,,0.00,WUHU216HW,2013-06-27 13:33:00,
2013-06-27 09:38:00,74.3,67.1,29.72,SSE,158,4.3,4.9,78,0.00,,,0.00,WUHU216HW,2013-06-27 13:38:00,
2013-06-27 09:43:00,74.9,67.2,29.73,SE,135,6.7,6.7,77,0.00,,,0.00,WUHU216HW,2013-06-27 13:43:00,
2013-06-27 09:48:00,74.9,67.2,29.72,SSE,158,3.8,6.7,77,0.00,,,0.00,WUHU216HW,2013-06-27 13:48:00,
2013-06-27 09:53:00,75.2,67.1,29.73,SSE,158,5.1,6.7,76,0.00,,,0.00,WUHU216HW,2013-06-27 13:53:00,
2013-06-27 09:58:00,75.2,66.8,29.73,ESE,113,3.1,5.8,75,0.00,,,0.00,WUHU216HW,2013-06-27 13:58:00,
2013-06-27 10:03:00,74.2,65.8,29.73,SE,135,2.0,5.8,75,0.00,,,0.00,WUHU216HW,2013-06-27 14:03:00,
2013-06-27 10:08:00,74.3,66.3,29.72,SE,135,2.0,4.0,76,0.00,,,0.00,WUHU216HW,2013-06-27 14:08:00,
2013-06-27 10:13:00,74.9,67.2,29.72,SSE,158,2.5,4.3,77,0.00,,,0.00,WUHU216HW,2013-06-27 14:13:00,
2013-06-27 10:18:00,76.0,67.9,29.73,South,180,2.7,4.3,76,0.00,,,0.00,WUHU216HW,2013-06-27 14:18:00,
2013-06-27 10:23:00,76.7,68.1,29.72,SSW,203,2.5,4.0,75,0.00,,,0.00,WUHU216HW,2013-06-27 14:23:00,
2013-06-27 10:28:00,77.4,68.5,29.72,ESE,113,2.2,3.8,74,0.00,,,0.00,WUHU216HW,2013-06-27 14:28:00,
2013-06-27 10:33:00,77.8,68.4,29.72,ESE,113,4.7,5.4,73,0.00,,,0.00,WUHU216HW,2013-06-27 14:33:00,
2013-06-27 10:38:00,77.8,68.1,29.72,SE,135,2.9,5.4,72,0.00,,,0.00,WUHU216HW,2013-06-27 14:38:00,
2013-06-27 10:43:00,78.5,69.0,29.72,SSW,203,1.8,5.4,73,0.00,,,0.00,WUHU216HW,2013-06-27 14:43:00,
2013-06-27 10:48:00,79.6,69.3,29.72,SE,135,2.2,4.0,71,0.00,,,0.00,WUHU216HW,2013-06-27 14:48:00,
2013-06-27 10:53:00,79.7,68.7,29.72,WNW,293,1.8,4.0,69,0.00,,,0.00,WUHU216HW,2013-06-27 14:53:00,
2013-06-27 10:58:00,79.6,68.9,29.72,South,180,3.1,3.1,70,0.00,,,0.00,WUHU216HW,2013-06-27 14:58:00,
2013-06-27 11:03:00,80.1,69.0,29.72,SE,135,2.5,4.0,69,0.00,,,0.00,WUHU216HW,2013-06-27 15:03:00,
2013-06-27 11:08:00,80.6,68.2,29.72,East,90,0.9,4.0,66,0.00,,,0.00,WUHU216HW,2013-06-27 15:08:00,
2013-06-27 11:13:00,80.6,68.7,29.72,SSW,203,2.5,3.4,67,0.00,,,0.00,WUHU216HW,2013-06-27 15:13:00,
2013-06-27 11:18:00,80.5,68.0,29.72,NNE,23,1.1,2.9,66,0.00,,,0.00,WUHU216HW,2013-06-27 15:18:00,
2013-06-27 11:23:00,80.3,68.3,29.72,East,90,2.5,2.9,67,0.00,,,0.00,WUHU216HW,2013-06-27 15:23:00,
2013-06-27 11:28:00,80.3,67.9,29.72,NE,45,1.6,4.9,66,0.00,,,0.00,WUHU216HW,2013-06-27 15:28:00,
2013-06-27 11:33:00,79.7,68.2,29.71,West,270,2.7,4.9,68,0.00,,,0.00,WUHU216HW,2013-06-27 15:33:00,
2013-06-27 11:38:00,80.3,68.3,29.71,South,180,4.9,4.9,67,0.00,,,0.00,WUHU216HW,2013-06-27 15:38:00,
2013-06-27 11:43:00,80.8,68.4,29.72,SSE,158,2.2,4.9,66,0.00,,,0.00,WUHU216HW,2013-06-27 15:43:00,
2013-06-27 11:48:00,81.5,69.0,29.71,SW,225,2.0,3.8,66,0.00,,,0.00,WUHU216HW,2013-06-27 15:48:00,
2013-06-27 11:53:00,81.9,69.0,29.71,SE,135,3.4,5.8,65,0.00,,,0.00,WUHU216HW,2013-06-27 15:53:00,
2013-06-27 11:58:00,82.4,68.9,29.71,SSE,158,2.2,5.8,64,0.00,,,0.00,WUHU216HW,2013-06-27 15:58:00,
2013-06-27 12:03:00,83.0,69.0,29.71,SSW,203,2.9,4.7,63,0.00,,,0.00,WUHU216HW,2013-06-27 16:03:00,
2013-06-27 12:08:00,83.9,69.5,29.70,South,180,2.9,4.3,62,0.00,,,0.00,WUHU216HW,2013-06-27 16:08:00,
2013-06-27 12:13:00,84.2,70.3,29.70,SE,135,3.4,7.6,63,0.00,,,0.00,WUHU216HW,2013-06-27 16:13:00,
2013-06-27 12:18:00,85.0,69.6,29.70,ESE,113,3.4,7.6,60,0.00,,,0.00,WUHU216HW,2013-06-27 16:18:00,
2013-06-27 12:23:00,85.3,69.4,29.70,SE,135,5.4,8.5,59,0.00,,,0.00,WUHU216HW,2013-06-27 16:23:00,
2013-06-27 12:28:00,85.3,69.4,29.70,ESE,113,6.0,8.5,59,0.00,,,0.00,WUHU216HW,2013-06-27 16:28:00,
2013-06-27 12:33:00,85.3,68.9,29.70,SE,135,4.7,7.8,58,0.00,,,0.00,WUHU216HW,2013-06-27 16:33:00,
2013-06-27 12:38:00,85.5,68.0,29.70,South,180,6.3,7.8,56,0.00,,,0.00,WUHU216HW,2013-06-27 16:38:00,
2013-06-27 12:43:00,86.0,69.5,29.70,SSE,158,4.0,7.2,58,0.00,,,0.00,WUHU216HW,2013-06-27 16:43:00,
2013-06-27 12:48:00,87.3,69.1,29.70,South,180,3.8,5.8,55,0.00,,,0.00,WUHU216HW,2013-06-27 16:48:00,
2013-06-27 12:53:00,87.3,69.1,29.69,SE,135,4.3,7.4,55,0.00,,,0.00,WUHU216HW,2013-06-27 16:53:00,
2013-06-27 12:58:00,86.6,68.5,29.70,SSE,158,7.2,7.8,55,0.00,,,0.00,WUHU216HW,2013-06-27 16:58:00,
2013-06-27 13:03:00,86.8,69.1,29.69,SSE,158,6.9,7.8,56,0.00,,,0.00,WUHU216HW,2013-06-27 17:03:00,
2013-06-27 13:08:00,87.5,69.3,29.69,SE,135,3.4,7.6,55,0.00,,,0.00,WUHU216HW,2013-06-27 17:08:00,
2013-06-27 13:13:00,87.5,68.2,29.69,SSW,203,4.0,6.7,53,0.00,,,0.00,WUHU216HW,2013-06-27 17:13:00,
2013-06-27 13:18:00,87.1,68.0,29.68,SSE,158,7.6,7.6,53,0.00,,,0.00,WUHU216HW,2013-06-27 17:18:00,
2013-06-27 13:23:00,87.5,67.7,29.68,SSW,203,2.7,8.5,52,0.00,,,0.00,WUHU216HW,2013-06-27 17:23:00,
2013-06-27 13:28:00,87.5,68.2,29.68,SSE,158,2.9,8.5,53,0.00,,,0.00,WUHU216HW,2013-06-27 17:28:00,
2013-06-27 13:33:00,87.8,68.6,29.68,SSE,158,4.0,5.8,53,0.00,,,0.00,WUHU216HW,2013-06-27 17:33:00,
2013-06-27 13:38:00,88.2,69.0,29.68,SSE,158,3.6,6.3,53,0.00,,,0.00,WUHU216HW,2013-06-27 17:38:00,
2013-06-27 13:43:00,88.4,68.0,29.68,SW,225,4.0,6.3,51,0.00,,,0.00,WUHU216HW,2013-06-27 17:43:00,
2013-06-27 13:48:00,88.6,68.7,29.68,SSE,158,3.6,5.6,52,0.00,,,0.00,WUHU216HW,2013-06-27 17:48:00,
2013-06-27 13:53:00,88.6,68.1,29.67,SSW,203,4.0,6.3,51,0.00,,,0.00,WUHU216HW,2013-06-27 17:53:00,
2013-06-27 13:58:00,88.6,67.6,29.67,South,180,4.0,6.3,50,0.00,,,0.00,WUHU216HW,2013-06-27 17:58:00,
2013-06-27 14:03:00,88.7,67.2,29.67,South,180,5.4,6.0,49,0.00,,,0.00,WUHU216HW,2013-06-27 18:03:00,
2013-06-27 14:08:00,88.9,68.0,29.67,ESE,113,4.7,6.0,50,0.00,,,0.00,WUHU216HW,2013-06-27 18:08:00,
2013-06-27 14:13:00,89.8,68.8,29.67,SSW,203,4.0,6.5,50,0.00,,,0.00,WUHU216HW,2013-06-27 18:13:00,
2013-06-27 14:18:00,89.8,68.8,29.67,SSW,203,2.5,6.5,50,0.00,,,0.00,WUHU216HW,2013-06-27 18:18:00,
2013-06-27 14:23:00,88.9,67.3,29.67,SW,225,3.4,5.4,49,0.00,,,0.00,WUHU216HW,2013-06-27 18:23:00,
2013-06-27 14:29:00,88.2,67.9,29.67,SSE,158,4.7,6.5,51,0.00,,,0.00,WUHU216HW,2013-06-27 18:29:00,
2013-06-27 14:34:00,88.4,68.0,29.67,South,180,4.0,6.9,51,0.00,,,0.00,WUHU216HW,2013-06-27 18:34:00,
2013-06-27 14:39:00,88.9,68.5,29.67,SE,135,3.4,6.9,51,0.00,,,0.00,WUHU216HW,2013-06-27 18:39:00,
2013-06-27 14:44:00,89.1,67.4,29.67,SSW,203,5.8,5.8,49,0.00,,,0.00,WUHU216HW,2013-06-27 18:44:00,
2013-06-27 14:49:00,89.6,69.1,29.67,SSW,203,2.2,5.8,51,0.00,,,0.00,WUHU216HW,2013-06-27 18:49:00,
2013-06-27 14:54:00,90.0,69.0,29.67,SSE,158,4.9,5.8,50,0.00,,,0.00,WUHU216HW,2013-06-27 18:54:00,
2013-06-27 14:59:00,90.4,69.2,29.67,SSW,203,2.2,5.4,50,0.00,,,0.00,WUHU216HW,2013-06-27 18:59:00,
2013-06-27 15:04:00,89.8,68.8,29.67,SW,225,0.7,4.9,50,0.00,,,0.00,WUHU216HW,2013-06-27 19:04:00,
2013-06-27 15:09:00,89.5,68.9,29.67,South,180,2.2,2.9,51,0.00,,,0.00,WUHU216HW,2013-06-27 19:09:00,
2013-06-27 15:14:00,89.3,68.8,29.67,SSE,158,2.5,4.0,51,0.00,,,0.00,WUHU216HW,2013-06-27 19:14:00,
2013-06-27 15:19:00,89.3,68.2,29.67,ENE,68,1.3,4.0,50,0.00,,,0.00,WUHU216HW,2013-06-27 19:19:00,
2013-06-27 15:24:00,89.5,68.4,29.67,SSW,203,1.6,2.5,50,0.00,,,0.00,WUHU216HW,2013-06-27 19:24:00,
2013-06-27 15:29:00,90.7,68.2,29.67,South,180,4.9,5.6,48,0.00,,,0.00,WUHU216HW,2013-06-27 19:29:00,
2013-06-27 15:34:00,90.4,68.0,29.67,SSW,203,1.3,5.6,48,0.00,,,0.00,WUHU216HW,2013-06-27 19:34:00,
2013-06-27 15:39:00,89.8,68.1,29.66,SSE,158,5.4,5.4,49,0.00,,,0.00,WUHU216HW,2013-06-27 19:39:00,
2013-06-27 15:44:00,88.4,66.2,29.67,SW,225,1.1,7.6,48,0.00,,,0.00,WUHU216HW,2013-06-27 19:44:00,
2013-06-27 15:49:00,88.4,66.8,29.66,SSE,158,1.1,7.6,49,0.00,,,0.00,WUHU216HW,2013-06-27 19:49:00,
2013-06-27 15:54:00,88.9,68.5,29.66,SSE,158,3.6,4.7,51,0.00,,,0.00,WUHU216HW,2013-06-27 19:54:00,
2013-06-27 15:59:00,88.6,67.6,29.67,WSW,248,1.1,4.7,50,0.00,,,0.00,WUHU216HW,2013-06-27 19:59:00,
2013-06-27 16:04:00,86.8,65.3,29.66,WSW,248,1.8,3.6,49,0.00,,,0.00,WUHU216HW,2013-06-27 20:04:00,
2013-06-27 16:09:00,85.3,65.3,29.66,WSW,248,1.8,2.2,51,0.00,,,0.00,WUHU216HW,2013-06-27 20:09:00,
2013-06-27 16:14:00,84.8,65.3,29.66,WSW,248,1.1,3.4,52,0.00,,,0.00,WUHU216HW,2013-06-27 20:14:00,
2013-06-27 16:19:00,84.4,64.5,29.66,WSW,248,2.0,3.4,51,0.00,,,0.00,WUHU216HW,2013-06-27 20:19:00,
2013-06-27 16:24:00,84.6,65.1,29.66,WSW,248,0.9,2.7,52,0.00,,,0.00,WUHU216HW,2013-06-27 20:24:00,
2013-06-27 16:29:00,84.8,65.3,29.66,WSW,248,0.4,3.6,52,0.00,,,0.00,WUHU216HW,2013-06-27 20:29:00,
2013-06-27 16:34:00,85.3,65.7,29.66,West,270,0.4,3.6,52,0.00,,,0.00,WUHU216HW,2013-06-27 20:34:00,
2013-06-27 16:39:00,85.7,65.5,29.66,SSW,203,0.4,1.6,51,0.00,,,0.00,WUHU216HW,2013-06-27 20:39:00,
2013-06-27 16:44:00,85.9,65.2,29.66,West,270,1.1,1.6,50,0.00,,,0.00,WUHU216HW,2013-06-27 20:44:00,
2013-06-27 16:49:00,85.7,65.0,29.66,West,270,0.4,2.2,50,0.00,,,0.00,WUHU216HW,2013-06-27 20:49:00,
2013-06-27 16:54:00,86.0,65.3,29.66,WSW,248,1.1,2.2,50,0.00,,,0.00,WUHU216HW,2013-06-27 20:54:00,
2013-06-27 16:59:00,86.8,66.0,29.66,SSE,158,2.0,2.0,50,0.00,,,0.00,WUHU216HW,2013-06-27 20:59:00,
2013-06-27 17:05:00,87.1,66.9,29.66,SSE,158,6.3,7.2,51,0.00,,,0.00,WUHU216HW,2013-06-27 21:05:00,
2013-06-27 17:10:00,86.8,66.5,29.66,South,180,4.0,7.8,51,0.00,,,0.00,WUHU216HW,2013-06-27 21:10:00,
2013-06-27 17:15:00,86.9,66.7,29.65,SE,135,3.4,7.8,51,0.00,,,0.00,WUHU216HW,2013-06-27 21:15:00,
2013-06-27 17:21:00,87.7,67.9,29.65,SSE,158,3.4,6.3,52,0.00,,,0.00,WUHU216HW,2013-06-27 21:21:00,
2013-06-27 17:26:00,87.5,66.6,29.65,South,180,5.8,6.7,50,0.00,,,0.00,WUHU216HW,2013-06-27 21:26:00,
2013-06-27 17:31:00,86.9,66.7,29.65,SSE,158,4.0,6.7,51,0.00,,,0.00,WUHU216HW,2013-06-27 21:31:00,
2013-06-27 17:36:00,86.4,66.2,29.65,South,180,4.0,6.7,51,0.00,,,0.00,WUHU216HW,2013-06-27 21:36:00,
2013-06-27 17:41:00,86.0,66.4,29.65,South,180,2.2,5.4,52,0.00,,,0.00,WUHU216HW,2013-06-27 21:41:00,
2013-06-27 17:46:00,86.0,66.9,29.65,SE,135,2.7,4.7,53,0.00,,,0.00,WUHU216HW,2013-06-27 21:46:00,
2013-06-27 17:51:00,85.5,65.9,29.65,South,180,2.9,4.5,52,0.00,,,0.00,WUHU216HW,2013-06-27 21:51:00,
2013-06-27 17:57:00,84.6,65.6,29.66,SSE,158,1.8,4.5,53,0.00,,,0.00,WUHU216HW,2013-06-27 21:57:00,
2013-06-27 18:03:00,84.1,65.6,29.65,South,180,1.1,3.6,54,0.00,,,0.00,WUHU216HW,2013-06-27 22:03:00,
2013-06-27 18:08:00,83.5,65.1,29.65,South,180,2.5,3.1,54,0.00,,,0.00,WUHU216HW,2013-06-27 22:08:00,
2013-06-27 18:13:00,83.2,64.7,29.66,SSE,158,1.3,3.1,54,0.00,,,0.00,WUHU216HW,2013-06-27 22:13:00,
2013-06-27 18:18:00,82.8,66.4,29.66,NE,45,4.9,5.4,58,0.00,,,0.00,WUHU216HW,2013-06-27 22:18:00,
2013-06-27 18:23:00,80.3,66.1,29.65,ENE,68,2.0,6.3,62,0.00,,,0.00,WUHU216HW,2013-06-27 22:23:00,
2013-06-27 18:28:00,79.6,66.8,29.65,NNE,23,6.3,6.3,65,0.00,,,0.00,WUHU216HW,2013-06-27 22:28:00,
2013-06-27 18:33:00,78.5,66.6,29.65,North,0,3.6,6.3,67,0.00,,,0.00,WUHU216HW,2013-06-27 22:33:00,
2013-06-27 18:38:00,77.8,65.9,29.66,ENE,68,5.4,6.0,67,0.00,,,0.00,WUHU216HW,2013-06-27 22:38:00,
2013-06-27 18:43:00,77.4,66.5,29.66,NW,315,1.3,6.0,69,0.00,,,0.00,WUHU216HW,2013-06-27 22:43:00,
2013-06-27 18:48:00,77.4,65.6,29.67,SSE,158,1.6,5.4,67,0.00,,,0.00,WUHU216HW,2013-06-27 22:48:00,
2013-06-27 18:53:00,77.4,66.5,29.67,ENE,68,2.7,5.1,69,0.00,,,0.00,WUHU216HW,2013-06-27 22:53:00,
2013-06-27 18:58:00,77.0,66.6,29.67,SSW,203,1.3,5.1,70,0.00,,,0.00,WUHU216HW,2013-06-27 22:58:00,
2013-06-27 19:03:00,76.7,66.6,29.67,NW,315,0.9,4.3,71,0.00,,,0.00,WUHU216HW,2013-06-27 23:03:00,
2013-06-27 19:08:00,76.0,65.5,29.67,WNW,293,2.5,4.3,70,0.00,,,0.00,WUHU216HW,2013-06-27 23:08:00,
2013-06-27 19:13:00,75.6,65.5,29.68,SE,135,1.6,4.3,71,0.00,,,0.00,WUHU216HW,2013-06-27 23:13:00,
2013-06-27 19:18:00,75.2,66.0,29.68,NW,315,3.4,3.4,73,0.01,,,0.01,WUHU216HW,2013-06-27 23:18:00,
2013-06-27 19:23:00,74.5,66.1,29.68,NNE,23,2.5,4.7,75,0.01,,,0.01,WUHU216HW,2013-06-27 23:23:00,
2013-06-27 19:29:00,73.8,65.8,29.68,WSW,248,0.7,4.7,76,0.01,,,0.01,WUHU216HW,2013-06-27 23:29:00,
2013-06-27 19:34:00,73.6,66.4,29.68,East,90,2.5,2.5,78,0.01,,,0.01,WUHU216HW,2013-06-27 23:34:00,
2013-06-27 19:39:00,73.3,65.6,29.68,ESE,113,1.3,3.8,77,0.01,,,0.01,WUHU216HW,2013-06-27 23:39:00,
2013-06-27 19:44:00,73.1,65.9,29.68,West,270,1.1,3.8,78,0.01,,,0.01,WUHU216HW,2013-06-27 23:44:00,
2013-06-27 19:49:00,72.7,65.1,29.68,WSW,248,1.1,1.8,77,0.01,,,0.01,WUHU216HW,2013-06-27 23:49:00,
2013-06-27 19:54:00,72.4,64.7,29.68,WNW,293,1.8,2.5,77,0.01,,,0.01,WUHU216HW,2013-06-27 23:54:00,
2013-06-27 19:59:00,72.0,65.2,29.68,NW,315,2.5,3.1,79,0.01,,,0.01,WUHU216HW,2013-06-27 23:59:00,
2013-06-27 20:04:00,71.6,64.8,29.68,NE,45,1.1,3.6,79,0.01,,,0.01,WUHU216HW,2013-06-28 00:04:00,
2013-06-27 20:09:00,71.3,65.2,29.67,NE,45,2.2,3.6,81,0.01,,,0.01,WUHU216HW,2013-06-28 00:09:00,
2013-06-27 20:14:00,70.9,64.8,29.67,NNE,23,3.6,4.0,81,0.01,,,0.01,WUHU216HW,2013-06-28 00:14:00,
2013-06-27 20:20:00,70.7,64.6,29.67,NE,45,2.5,5.6,81,0.00,,,0.01,WUHU216HW,2013-06-28 00:20:00,
2013-06-27 20:25:00,70.4,64.3,29.67,ESE,113,0.9,5.6,81,0.00,,,0.01,WUHU216HW,2013-06-28 00:25:00,
2013-06-27 20:31:00,70.4,64.3,29.67,NE,45,2.9,3.4,81,0.00,,,0.01,WUHU216HW,2013-06-28 00:31:00,
2013-06-27 20:37:00,70.2,63.7,29.68,North,0,0.4,4.5,80,0.00,,,0.01,WUHU216HW,2013-06-28 00:37:00,
2013-06-27 20:42:00,70.2,63.7,29.68,WNW,293,0.0,2.5,80,0.00,,,0.01,WUHU216HW,2013-06-28 00:42:00,
2013-06-27 20:47:00,70.2,63.7,29.68,West,270,1.8,2.5,80,0.00,,,0.01,WUHU216HW,2013-06-28 00:47:00,
2013-06-27 20:52:00,70.2,63.7,29.68,West,270,1.6,2.5,80,0.00,,,0.01,WUHU216HW,2013-06-28 00:52:00,
2013-06-27 20:58:00,70.0,63.5,29.68,West,270,1.8,2.5,80,0.00,,,0.01,WUHU216HW,2013-06-28 00:58:00,
2013-06-27 21:03:00,69.8,63.4,29.68,SW,225,0.9,2.0,80,0.00,,,0.01,WUHU216HW,2013-06-28 01:03:00,
2013-06-27 21:08:00,69.7,63.2,29.69,WSW,248,1.1,3.1,80,0.00,,,0.01,WUHU216HW,2013-06-28 01:08:00,
2013-06-27 21:13:00,69.7,63.2,29.69,SSW,203,0.2,3.1,80,0.00,,,0.01,WUHU216HW,2013-06-28 01:13:00,
2013-06-27 21:18:00,69.5,63.0,29.69,SSW,203,1.6,2.5,80,0.00,,,0.01,WUHU216HW,2013-06-28 01:18:00,
2013-06-27 21:23:00,69.3,63.2,29.69,South,180,0.0,2.5,81,0.00,,,0.01,WUHU216HW,2013-06-28 01:23:00,
2013-06-27 21:28:00,69.3,63.5,29.70,NNE,23,0.4,2.0,82,0.00,,,0.01,WUHU216HW,2013-06-28 01:28:00,
2013-06-27 21:33:00,69.1,64.1,29.70,NE,45,2.7,2.7,84,0.00,,,0.01,WUHU216HW,2013-06-28 01:33:00,
2013-06-27 21:38:00,68.8,64.4,29.70,ENE,68,1.8,3.6,86,0.00,,,0.01,WUHU216HW,2013-06-28 01:38:00,
2013-06-27 21:43:00,68.4,64.0,29.69,SE,135,1.8,3.6,86,0.00,,,0.01,WUHU216HW,2013-06-28 01:43:00,
2013-06-27 21:49:00,68.6,63.9,29.69,ESE,113,0.4,2.5,85,0.00,,,0.01,WUHU216HW,2013-06-28 01:49:00,
2013-06-27 21:54:00,68.8,63.7,29.69,NNE,23,0.0,1.6,84,0.00,,,0.01,WUHU216HW,2013-06-28 01:54:00,
2013-06-27 21:59:00,68.6,63.5,29.69,NNE,23,0.0,0.4,84,0.00,,,0.01,WUHU216HW,2013-06-28 01:59:00,
2013-06-27 22:04:00,68.4,63.4,29.69,South,180,0.7,1.3,84,0.00,,,0.01,WUHU216HW,2013-06-28 02:04:00,
2013-06-27 22:09:00,68.4,63.4,29.69,SSW,203,0.4,1.3,84,0.00,,,0.01,WUHU216HW,2013-06-28 02:09:00,
2013-06-27 22:14:00,68.4,63.4,29.69,SSW,203,0.0,0.9,84,0.00,,,0.01,WUHU216HW,2013-06-28 02:14:00,
2013-06-27 22:20:00,68.4,63.4,29.69,West,270,0.2,1.3,84,0.00,,,0.01,WUHU216HW,2013-06-28 02:20:00,
2013-06-27 22:25:00,68.2,63.2,29.69,West,270,0.0,1.3,84,0.00,,,0.01,WUHU216HW,2013-06-28 02:25:00,
2013-06-27 22:30:00,68.4,63.4,29.69,SSW,203,0.0,0.0,84,0.00,,,0.01,WUHU216HW,2013-06-28 02:30:00,
2013-06-27 22:35:00,68.4,63.7,29.69,SSW,203,0.0,0.4,85,0.00,,,0.01,WUHU216HW,2013-06-28 02:35:00,
2013-06-27 22:40:00,68.4,63.7,29.69,SW,225,0.0,1.1,85,0.00,,,0.01,WUHU216HW,2013-06-28 02:40:00,
2013-06-27 22:46:00,68.4,63.7,29.70,WNW,293,0.7,1.3,85,0.00,,,0.01,WUHU216HW,2013-06-28 02:46:00,
2013-06-27 22:51:00,68.2,63.6,29.70,NW,315,0.0,1.3,85,0.00,,,0.01,WUHU216HW,2013-06-28 02:51:00,
2013-06-27 22:56:00,68.2,63.2,29.69,NW,315,0.0,0.7,84,0.00,,,0.01,WUHU216HW,2013-06-28 02:56:00,
2013-06-27 23:01:00,68.2,63.2,29.69,West,270,0.0,0.0,84,0.00,,,0.01,WUHU216HW,2013-06-28 03:01:00,
2013-06-27 23:06:00,68.0,63.0,29.70,SSW,203,0.7,1.8,84,0.00,,,0.01,WUHU216HW,2013-06-28 03:06:00,
2013-06-27 23:11:00,68.0,63.0,29.69,WSW,248,0.4,1.8,84,0.00,,,0.01,WUHU216HW,2013-06-28 03:11:00,
2013-06-27 23:17:00,67.9,62.8,29.69,WSW,248,0.0,1.1,84,0.00,,,0.01,WUHU216HW,2013-06-28 03:17:00,
2013-06-27 23:22:00,67.9,62.8,29.69,North,0,0.0,0.7,84,0.00,,,0.01,WUHU216HW,2013-06-28 03:22:00,
2013-06-27 23:27:00,67.5,62.8,29.69,NE,45,0.7,1.1,85,0.00,,,0.01,WUHU216HW,2013-06-28 03:27:00,
2013-06-27 23:32:00,67.3,62.6,29.68,NE,45,0.0,1.1,85,0.00,,,0.01,WUHU216HW,2013-06-28 03:32:00,
2013-06-27 23:37:00,67.1,62.5,29.68,North,0,0.0,0.9,85,0.00,,,0.01,WUHU216HW,2013-06-28 03:37:00,
2013-06-27 23:43:00,67.0,62.7,29.68,North,0,0.0,0.4,86,0.00,,,0.01,WUHU216HW,2013-06-28 03:43:00,
2013-06-27 23:48:00,66.8,62.5,29.68,North,0,0.0,0.0,86,0.00,,,0.01,WUHU216HW,2013-06-28 03:48:00,
2013-06-27 23:53:00,66.8,62.5,29.68,ESE,113,0.2,0.4,86,0.00,,,0.01,WUHU216HW,2013-06-28 03:53:00,
2013-06-27 23:58:00,66.6,62.3,29.68,ESE,113,0.7,1.1,86,0.00,,,0.01,WUHU216HW,2013-06-28 03:58:00,